User: anonymous   Login
Location: Newark
(42.9277°N, 71.8621°W)
Time: 22:23:53
(UTC+00:00)
Language:

Explorer 7 - Orbit

View from above orbital plane
View from above orbital plane
View from above satellite
View from above satellite

Ground track
Ground track

The orbit data is extracted from the following two-line orbital elements,

1    22U 59009A   20145.70789013 +.00000026 +00000-0 +25145-4 0  9993
2    22 050.2833 213.4772 0139685 168.0914 192.3392 14.95138535466823
Epoch (UTC): 24 May 2020 16:59:21
Eccentricity: 0.0139685
inclination: 50.2833°
perigee height: 485 km
apogee height: 679 km
right ascension of ascending node: 213.4772°
argument of perigee: 168.0914°
revolutions per day: 14.95138535
mean anomaly at epoch: 192.3392°
orbit number at epoch: 46682

The dashed part of the orbit path shows where the satellite is in the earth's shadow,  

DLR